Location: St. Louis
(38.6270°N, 90.1994°W)
Time: 12:39:06
(UTC-06:00)

Transit 2A - Pass Details

Date: 30 November 2021
Orbit: 591 x 967 km, 66.7° (Epoch: 16 January)

Event Time Altitude Azimuth Distance (km) Brightness Sun altitude
Rises 08:38:11 0° 339° (NNW) 3,657 9.0 14.8°
Reaches altitude 10° 08:41:13 10° 352° (N) 2,712 8.4 15.2°
Maximum altitude 08:46:31 27° 48° (NE) 1,765 8.0 16.0°
Drops below altitude 10° 08:51:39 10° 104° (ESE) 2,628 9.9 16.6°
Sets 08:54:32 0° 116° (ESE) 3,522 10.7 17.0°
